Regional Weather Roundup
Issued by NWS

Home | Current Version | Previous Version | Text Only | Print | Product List | Glossary Off
Versions: 1 2 3 4 5 6 7 8 9 10 11 12 13 14 15 16 17 18 19 20 21 22 23 24 25 26 27 28 29 30 31 32 33 34 35 36 37 38 39 40 41 42 43 44 45 46 47 48 49 50

000
ASUS45 KCYS 200710
RWRWY

WYOMING REGIONAL WEATHER ROUNDUP
NATIONAL WEATHER SERVICE CHEYENNE WY
100 AM MDT MON OCT 20 2014

NOTE:  "FAIR" INDICATES FEW OR NO CLOUDS BELOW 12,000 FEET
WITH NO SIGNIFICANT WEATHER AND/OR OBSTRUCTIONS TO VISIBILITY.

WYZ001-200800-
YELLOWSTONE NATIONAL PARK

CITY           SKY/WX    TMP DP  RH WIND       PRES   REMARKS
LK YELLOWSTONE   N/A     27  21  78 CALM      30.24S
W YELLOWSTONE  NOT AVBL

$$
WYZ002>013-054>058-071-098>099-200800-
NORTHERN WYOMING

CITY           SKY/WX    TMP DP  RH WIND       PRES   REMARKS
JACKSON        CLEAR     30  25  80 N5        30.19R WCI  25
CODY           CLEAR    N/A N/A N/A CALM      30.05F
GREYBULL       CLEAR     40  27  59 CALM      30.02R
WORLAND        CLEAR     43  29  57 S9        30.03R
SHERIDAN       PTCLDY    39  31  72 CALM      30.00F
BUFFALO        PTCLDY    51  29  42 S8        30.06F
GILLETTE       CLEAR     51  35  54 S17       30.07F
HULETT         FAIR      52  37  58 CALM      30.08
NEWCASTLE      FAIR      43  34  70 CALM      30.11

$$
WYZ014>020-022>026-101>103-200800-
CENTRAL WYOMING

CITY           SKY/WX    TMP DP  RH WIND       PRES   REMARKS
BIG PINEY      CLEAR     31  22  69 CALM      30.22R
PINEDALE       SUNNY     28  27  93 W7        30.22R WCI  21
DUBOIS         FAIR      36  19  51 NW14      30.20R WCI  27
LANDER         CLEAR     46  30  53 S5        30.10R
RIVERTON       CLEAR     46  30  53 NW13      30.11R
CASPER         CLEAR     35  29  78 NE3       30.12R
DOUGLAS        CLEAR     47  34  60 SE8       30.13S

$$
WYZ021-027>030-104>119-200800-
SOUTHERN WYOMING

CITY           SKY/WX    TMP DP  RH WIND       PRES   REMARKS
EVANSTON       CLEAR     47  27  45 S6        30.19S
KEMMERER       SUNNY     36  28  75 N10       30.21R WCI  28
FORT BRIDGER   FAIR      49  30  48 W5        30.22R
ROCK SPRINGS   CLEAR     48  28  46 CALM      30.18R
DIXON          FAIR      40  31  67 S3        30.22R
RAWLINS        CLEAR     38  25  59 NE6       30.19S WCI  33
SARATOGA       FAIR      39  30  70 CALM      30.22R
LARAMIE        CLEAR     43  32  65 S13       30.23S
CHEYENNE       CLEAR     41  33  73 W5        30.21R
TORRINGTON     CLEAR     42  35  76 W5        30.12R
PINE BLUFFS    FAIR      36  32  87 W3        30.18R

$$



USA.gov is the U.S. government's official web portal to all federal, state and local government web resources and services.